ITY8001 LIEO-LIMC

Flight info

Callsign ITY8001
Flight time N/A
Altitude 30000
Route OKIVA P980 DIKEL DCT RATAP DCT MEGER DCT ANAKI P860 DEVOX
Aircraft A319/M-SDE2E3FGIJ1RWY/LB1

Departure

Time 2026-05-05 19:10
Airport Olbia Costa Smeralda Airport (LIEO)

Arrival

Time N/A
Airport Milan Malpensa International Airport (LIMC)
Time Latitude Longitude Altitude Speed Heading
2026-05-05 18:47 40.90226 9.51616 34 ft 0 kts 325°
2026-05-05 19:03 40.90224 9.51618 34 ft 2 kts 325°
2026-05-05 19:03 40.90204 9.51639 33 ft 4 kts 311°
2026-05-05 19:03 40.90190 9.51668 34 ft 4 kts 285°
2026-05-05 19:04 40.90189 9.51699 34 ft 3 kts 238°
2026-05-05 19:04 40.90191 9.51702 34 ft 0 kts 235°
2026-05-05 19:06 40.90178 9.51678 33 ft 8 kts 235°
2026-05-05 19:06 40.90129 9.51585 34 ft 17 kts 235°
2026-05-05 19:06 40.90040 9.51497 34 ft 18 kts 159°
2026-05-05 19:06 40.89923 9.51467 33 ft 20 kts 225°
2026-05-05 19:07 40.89826 9.51295 34 ft 26 kts 235°
2026-05-05 19:07 40.89721 9.51095 34 ft 27 kts 235°
2026-05-05 19:07 40.89607 9.50878 34 ft 30 kts 235°
2026-05-05 19:07 40.89492 9.50659 34 ft 28 kts 235°
2026-05-05 19:08 40.89383 9.50462 34 ft 20 kts 217°
2026-05-05 19:08 40.89285 9.50495 34 ft 16 kts 89°
2026-05-05 19:08 40.89281 9.50643 33 ft 13 kts 75°
2026-05-05 19:08 40.89299 9.50679 34 ft 0 kts 55°
2026-05-05 19:09 40.89302 9.50685 34 ft 4 kts 55°
2026-05-05 19:10 40.89432 9.50932 33 ft 73 kts 55°
2026-05-05 19:10 40.89862 9.51755 33 ft 142 kts 55°
2026-05-05 19:10 40.90502 9.52987 290 ft 174 kts 55°
2026-05-05 19:10 40.91181 9.54305 1074 ft 172 kts 56°
2026-05-05 19:11 40.91862 9.55599 1835 ft 172 kts 56°
2026-05-05 19:11 40.92589 9.56972 2304 ft 193 kts 57°
2026-05-05 19:11 40.93405 9.58512 2697 ft 216 kts 56°
2026-05-05 19:11 40.94310 9.60211 3144 ft 236 kts 56°
2026-05-05 19:12 40.95299 9.62059 3744 ft 252 kts 56°
2026-05-05 19:12 40.96323 9.63973 4561 ft 258 kts 55°
2026-05-05 19:12 40.97629 9.65614 5340 ft 265 kts 28°
2026-05-05 19:12 40.99397 9.66257 6153 ft 267 kts 358°
2026-05-05 19:13 41.01185 9.65713 6991 ft 265 kts 329°
2026-05-05 19:13 41.02763 9.64380 7629 ft 278 kts 322°
2026-05-05 19:13 41.04370 9.62925 8407 ft 287 kts 322°
2026-05-05 19:13 41.06078 9.61363 8919 ft 309 kts 322°
2026-05-05 19:14 41.07844 9.59589 9390 ft 327 kts 314°
2026-05-05 19:14 41.09340 9.57235 9862 ft 343 kts 302°
2026-05-05 19:14 41.10758 9.54608 10298 ft 356 kts 303°
2026-05-05 19:14 41.12216 9.51923 10800 ft 362 kts 303°
2026-05-05 19:15 41.13699 9.49209 11603 ft 365 kts 303°
2026-05-05 19:15 41.15195 9.46476 12413 ft 368 kts 303°
2026-05-05 19:15 41.16707 9.43715 13224 ft 371 kts 302°
2026-05-05 19:15 41.18234 9.40924 13981 ft 374 kts 302°
2026-05-05 19:16 41.19766 9.38110 14642 ft 378 kts 302°
2026-05-05 19:16 41.21309 9.35270 15311 ft 381 kts 302°
2026-05-05 19:16 41.22863 9.32387 15977 ft 385 kts 301°
2026-05-05 19:16 41.24370 9.29429 16647 ft 388 kts 299°
2026-05-05 19:17 41.25836 9.26409 17290 ft 391 kts 298°
2026-05-05 19:17 41.27291 9.23337 17947 ft 395 kts 297°
2026-05-05 19:17 41.28753 9.20224 18553 ft 398 kts 297°
2026-05-05 19:17 41.30240 9.17101 19120 ft 402 kts 300°
2026-05-05 19:18 41.32109 9.14282 19665 ft 413 kts 315°
2026-05-05 19:18 41.34543 9.12185 20223 ft 424 kts 331°
2026-05-05 19:18 41.37388 9.11014 20777 ft 434 kts 347°
2026-05-05 19:18 41.40396 9.10850 21315 ft 441 kts 358°
2026-05-05 19:19 41.43467 9.10954 21858 ft 444 kts 358°
2026-05-05 19:19 41.46569 9.11071 22366 ft 447 kts 358°
2026-05-05 19:19 41.49686 9.11189 22878 ft 449 kts 358°
2026-05-05 19:19 41.52825 9.11306 23379 ft 452 kts 358°
2026-05-05 19:20 41.55977 9.11410 23803 ft 454 kts 357°
2026-05-05 19:20 41.59141 9.11439 24188 ft 456 kts 356°
2026-05-05 19:20 41.62332 9.11405 24562 ft 459 kts 355°
2026-05-05 19:20 41.65537 9.11341 24914 ft 463 kts 354°
2026-05-05 19:21 41.68776 9.11272 25262 ft 466 kts 354°
2026-05-05 19:21 41.72031 9.11213 25615 ft 469 kts 354°
2026-05-05 19:21 41.75305 9.11172 25956 ft 472 kts 354°